Location: Three Guys Observatory
(38.6418°N, 87.1521°W)
Time: 14:58:04
(UTC-04:00)

ISS - Visible Passes

Search period start: 02 September 2015 00:00
Search period end: 12 September 2015 00:00
Orbit: 400 x 403 km, 51.6° (Epoch: 01 September)

Date Brightness Start Highest point End Pass type
(mag) Time Alt. Az. Time Alt. Az. Time Alt. Az.
07 Sep -2.0 06:56:42 10° SSW 06:59:45 38° SE 07:02:49 10° ENE visible
08 Sep -1.0 06:04:15 10° S 06:06:36 19° SE 06:09:01 10° E visible
09 Sep -3.4 06:46:15 10° SW 06:49:30 81° NW 06:52:47 10° NE visible
10 Sep -2.6 05:55:23 35° S 05:56:16 46° SE 05:59:25 10° ENE visible
11 Sep -0.6 05:04:32 17° E 05:04:32 17° E 05:05:45 10° ENE visible
11 Sep -2.4 06:37:08 15° W 06:39:24 35° NNW 06:42:27 10° NE visible
